Wind_Speed
9 8 7 10 11 14 14 12 9 12 16 15 17 18 19 16 16 18 20 18 17 19 21 21 21 23 24 25 25 25 24 24 24 23 23 21 21 22 22 22 22 22 22
7 10 10 12 12 15 15 13 13 12 16 16 15 17 17 17 17 17 20 20 20 22 25 26 25 26 25 26 25 24 24 23 23 23 23 23 23 23 22 22 22 23 24
9 11 13 15 12 14 16 15 13 15 14 16 15 13 14 13 17 19 22 22 22 24 26 26 25 25 24 24 25 25 25 26 27 26 26 26 25 25 24 24 24 25 25
11 11 13 14 13 14 16 14 13 14 16 17 15 11 13 14 18 22 23 23 23 23 24 22 23 24 25 25 25 27 28 27 27 26 25 26 26 24 22 22 23 24 24
11 12 11 10 11 12 13 15 13 14 15 19 14 13 15 19 20 21 23 22 21 21 21 21 24 25 26 25 26 27 26 27 26 26 26 25 23 23 22 23 24 24 24
13 12 11 10 10 12 11 13 15 16 15 18 18 18 17 19 19 20 20 20 19 20 20 22 24 26 24 26 26 25 27 26 25 24 22 22 23 24 24 25 25 25 26
13 12 14 13 11 11 12 10 14 17 16 16 16 18 18 17 18 17 16 17 18 20 20 22 26 24 25 24 23 25 25 25 23 21 23 23 25 25 25 25 25 25 25
12 13 15 14 13 13 12 11 12 13 15 15 15 16 17 17 16 14 13 14 15 19 21 25 24 21 23 22 22 22 20 19 21 23 23 23 24 24 26 27 28 29 29
11 11 13 14 15 14 12 10 12 12 11 14 13 15 15 16 14 13 12 11 15 18 22 23 21 19 20 19 19 19 16 18 19 20 21 21 22 24 27 31 32 33 33
10 10 10 14 14 13 13 13 12 11 11 11 12 14 16 14 12 12 10 8 12 14 18 20 18 16 17 17 15 16 15 15 15 17 17 20 20 25 28 30 32 33 34
11 11 9 11 13 12 11 13 14 11 9 10 13 14 13 14 13 10 9 10 10 11 15 16 14 14 14 14 13 13 13 12 12 15 18 19 22 25 28 32 33 34 35
10 9 8 7 9 10 10 10 12 13 11 10 14 15 13 13 12 10 11 14 12 13 15 15 15 13 11 12 13 12 10 10 11 15 19 21 23 26 31 33 34 35 35
12 9 7 6 7 8 7 6 9 11 12 12 12 12 14 12 13 11 12 15 16 15 14 13 13 11 9 9 10 9 7 8 12 16 19 20 26 31 34 33 34 33 34
12 11 9 6 5 5 6 7 7 8 10 12 13 11 11 11 11 12 13 12 12 12 11 11 10 8 8 6 4 6 6 9 12 14 17 21 26 29 31 32 31 29 33
15 13 11 8 6 6 4 6 6 5 8 11 12 11 12 9 8 10 10 8 6 8 7 7 6 6 4 4 5 5 5 7 10 14 16 20 25 27 28 29 31 31 32
18 15 12 8 7 8 5 5 5 5 4 6 9 11 10 9 9 10 9 8 5 5 5 6 4 2 2 2 3 3 5 7 10 12 16 20 24 24 26 29 30 31 32
19 17 13 10 8 7 6 5 5 4 4 4 4 9 10 10 10 10 10 8 6 6 4 3 3 1 1 1 2 3 4 6 8 12 16 20 22 24 27 30 30 31 32
21 19 15 11 10 9 7 6 6 5 3 2 3 3 8 10 10 10 10 9 7 6 7 5 4 4 4 3 3 4 4 6 10 14 18 20 22 24 28 29 30 31 31
24 22 19 16 15 12 11 9 8 9 7 5 3 2 3 9 12 13 13 13 12 11 9 8 9 9 7 6 6 7 6 9 12 15 18 20 22 23 25 27 29 31 33
27 25 23 21 19 17 16 14 13 11 11 9 7 6 6 7 10 14 16 16 16 16 14 13 12 12 11 10 9 9 8 8 14 14 19 19 21 22 25 26 28 32 33
28 27 26 23 22 21 20 18 18 16 14 13 11 10 10 11 11 13 18 20 20 19 18 17 16 16 16 14 13 13 13 12 14 14 18 18 22 24 25 27 28 31 31
32 29 26 25 24 23 23 22 21 20 17 16 15 14 13 13 15 16 16 21 23 23 22 20 20 19 18 17 17 17 15 17 15 17 18 22 22 24 25 27 27 28 29
37 33 31 28 24 23 23 24 24 23 20 19 19 17 16 17 18 18 19 18 22 26 25 24 23 23 21 20 19 20 19 18 20 20 19 23 23 24 26 25 26 26 27
40 37 35 33 30 26 26 25 25 25 23 22 21 21 19 19 19 20 20 19 20 24 29 28 26 27 24 22 22 22 23 23 24 24 23 25 26 26 27 27 26 25 25
43 40 38 37 33 31 30 28 26 24 25 24 24 23 22 21 22 22 21 21 20 22 28 30 29 29 27 28 24 24 26 26 25 25 26 27 31 29 29 29 28 25 25
47 45 42 40 37 35 34 32 30 26 23 25 25 24 24 24 25 24 22 23 21 24 27 30 32 30 31 31 29 27 27 26 24 21 27 28 31 32 30 29 28 25 24
Wind_Direction
53 62 88 75 93 91 100 99 90 96 103 104 104 107 102 103 104 99 97 98 97 97 96 95 97 96 93 93 93 93 92 90 88 85 82 79 77 75 71 68 63 56 51
50 75 80 91 103 94 95 101 101 97 105 107 104 102 108 114 110 108 104 99 100 99 100 101 99 96 95 95 92 89 86 84 82 81 81 79 75 71 66 60 54 49 43
72 87 92 97 90 89 94 96 101 97 93 107 103 110 110 115 118 112 105 101 98 99 101 103 102 100 97 94 93 89 85 80 78 76 74 71 68 66 60 55 51 43 37
80 77 82 85 91 88 90 92 92 93 100 98 103 111 120 120 115 110 107 106 104 105 109 109 104 103 102 98 93 89 85 83 80 77 71 66 62 57 52 46 39 33 26
83 76 76 75 87 87 92 98 91 89 98 104 113 120 126 121 117 112 113 110 109 112 115 113 110 109 107 99 91 87 84 78 73 71 68 62 56 52 46 41 38 33 26
91 84 82 86 88 94 94 107 107 101 104 113 118 120 118 114 115 118 121 119 118 118 117 115 115 111 102 94 90 86 80 75 73 64 59 55 53 50 47 43 37 32 28
99 98 97 100 106 108 116 117 111 110 114 113 114 115 118 118 119 120 118 113 120 122 123 122 119 109 102 97 92 87 84 77 68 64 55 51 50 47 44 41 39 34 28
111 105 105 109 109 102 104 105 103 112 114 115 121 120 119 119 122 117 116 119 118 118 127 127 117 106 104 98 93 88 82 73 64 55 50 46 43 41 41 38 33 28 24
111 100 100 98 99 102 107 105 101 100 114 122 124 123 129 129 130 124 118 114 116 118 126 128 122 110 105 98 95 89 82 68 57 52 47 44 40 39 37 34 28 24 20
119 102 95 97 96 97 107 110 103 103 112 128 129 125 134 135 127 117 116 117 123 129 134 131 127 119 112 106 100 88 78 66 55 47 41 40 39 38 34 28 23 21 18
129 114 93 87 88 87 93 105 106 108 101 118 132 127 134 131 122 116 117 115 117 124 127 131 133 122 116 104 98 89 79 65 47 37 34 35 35 33 28 24 19 17 15
138 129 115 103 91 87 87 92 106 114 123 126 133 137 140 129 118 120 119 117 114 111 114 119 118 116 106 93 83 74 63 47 33 31 31 29 30 28 22 19 13 13 10
161 153 147 127 102 90 86 92 100 118 126 132 149 151 147 137 133 134 130 120 117 117 116 114 109 103 103 98 80 60 46 36 31 31 27 23 27 22 17 15 11 9 7
178 167 170 163 138 100 96 103 110 122 127 140 156 160 152 147 146 149 135 128 125 125 129 130 122 109 103 94 85 65 41 30 31 25 20 21 23 18 10 7 7 6 3
192 193 190 180 158 131 113 108 105 108 130 140 155 166 166 165 161 150 135 127 125 134 122 120 109 92 83 73 61 43 29 22 26 16 10 16 16 10 1 360 359 359 1
199 206 201 184 174 157 149 136 124 105 98 134 153 162 180 182 176 167 152 145 149 138 146 145 147 131 67 47 36 22 15 13 16 7 2 12 8 359 356 357 356 354 355
203 209 210 200 195 186 164 164 165 136 120 110 167 173 172 192 196 189 181 187 199 188 189 192 203 185 141 321 334 359 357 359 358 358 354 6 354 352 355 355 354 353 355
212 209 212 215 220 220 207 196 208 202 186 163 135 191 198 195 198 201 200 202 211 223 225 236 246 270 283 281 291 306 314 329 341 348 355 350 345 352 356 355 353 352 352
217 218 213 215 223 229 233 220 223 225 224 227 220 209 230 221 215 211 210 210 215 229 240 238 245 252 250 255 266 274 301 321 335 339 340 343 345 350 353 355 349 352 356
218 218 220 220 219 226 233 239 234 240 235 234 240 248 250 241 232 226 222 222 222 223 232 237 243 251 255 259 261 268 278 300 311 328 330 341 337 344 353 348 350 357 355
220 222 221 221 225 226 228 230 237 242 240 238 243 252 259 254 246 241 231 227 229 230 232 236 241 248 252 253 263 270 281 294 301 315 318 327 336 338 344 345 350 353 354
219 224 228 228 225 228 230 231 231 238 242 238 246 254 261 262 250 248 247 236 232 235 235 238 244 249 253 255 260 265 277 285 289 305 310 320 329 331 336 338 343 347 350
217 218 225 231 232 227 232 235 235 234 239 245 247 254 261 263 260 252 253 256 241 237 238 241 245 250 251 251 256 264 267 273 278 287 305 312 319 321 326 328 332 338 343
218 217 221 225 230 231 234 235 238 236 235 239 247 252 258 265 260 255 255 257 258 247 240 239 241 252 253 255 256 263 268 274 278 282 296 314 309 311 313 318 322 329 333
222 219 219 222 224 229 236 241 242 240 237 239 243 249 255 263 262 254 254 257 258 256 248 243 241 248 252 258 259 264 268 272 281 293 294 303 306 309 311 308 310 318 324
224 220 218 220 222 226 231 236 242 243 242 242 245 249 252 258 260 255 254 259 264 262 259 248 243 245 251 258 264 270 272 273 283 290 300 308 311 316 314 307 305 308 315
Height
5926 5926 5925 5924 5924 5925 5925 5925 5925 5925 5924 5925 5925 5925 5925 5927 5927 5927 5926 5926 5927 5926 5926 5927 5927 5927 5928 5928 5927 5926 5925 5924 5923 5921 5920 5920 5919 5919 5918 5917 5916 5915 5913
5928 5927 5926 5926 5926 5927 5927 5927 5928 5929 5928 5929 5929 5929 5929 5930 5930 5930 5930 5930 5930 5929 5930 5930 5930 5931 5931 5932 5931 5929 5929 5927 5926 5925 5925 5924 5923 5922 5921 5920 5918 5916 5914
5929 5929 5928 5929 5929 5929 5930 5930 5932 5931 5930 5931 5932 5933 5933 5933 5933 5933 5933 5933 5934 5934 5934 5935 5935 5935 5935 5935 5935 5934 5933 5932 5931 5930 5929 5928 5928 5926 5925 5923 5921 5918 5915
5931 5931 5930 5931 5932 5932 5932 5932 5933 5933 5933 5932 5934 5936 5936 5936 5937 5936 5936 5937 5937 5938 5938 5939 5939 5939 5939 5939 5938 5938 5937 5936 5935 5934 5933 5932 5930 5929 5927 5925 5922 5920 5917
5932 5933 5932 5933 5934 5934 5934 5935 5935 5936 5936 5935 5937 5939 5939 5939 5940 5940 5940 5940 5940 5941 5941 5942 5942 5942 5942 5942 5942 5941 5939 5939 5939 5938 5936 5935 5934 5932 5930 5927 5924 5922 5919
5934 5936 5936 5936 5936 5936 5936 5938 5939 5938 5939 5939 5940 5941 5942 5943 5943 5944 5944 5943 5943 5944 5945 5945 5945 5945 5945 5945 5944 5944 5943 5942 5942 5942 5941 5939 5936 5935 5932 5929 5927 5924 5920
5936 5939 5939 5940 5939 5940 5940 5941 5941 5941 5942 5942 5944 5944 5945 5946 5947 5948 5947 5947 5948 5948 5949 5948 5948 5948 5948 5948 5948 5947 5947 5946 5946 5945 5944 5942 5939 5937 5934 5932 5929 5926 5922
5940 5942 5942 5943 5943 5942 5943 5944 5943 5943 5943 5944 5947 5947 5947 5948 5949 5951 5951 5951 5951 5951 5951 5952 5951 5951 5952 5951 5950 5950 5950 5950 5949 5948 5946 5944 5942 5939 5937 5934 5931 5927 5923
5942 5944 5945 5945 5945 5945 5946 5946 5946 5946 5946 5947 5948 5949 5950 5951 5953 5954 5954 5954 5954 5955 5954 5954 5954 5954 5954 5954 5954 5953 5953 5953 5952 5950 5949 5947 5945 5942 5939 5936 5932 5928 5924
5944 5946 5947 5947 5948 5947 5948 5948 5948 5948 5949 5949 5950 5951 5952 5954 5956 5956 5957 5957 5957 5957 5957 5956 5956 5956 5956 5957 5956 5955 5955 5955 5954 5953 5951 5949 5946 5944 5940 5937 5933 5929 5925
5945 5946 5948 5949 5948 5949 5950 5951 5950 5951 5951 5952 5952 5954 5956 5957 5958 5958 5959 5959 5959 5960 5960 5959 5959 5960 5960 5960 5960 5959 5958 5957 5956 5955 5952 5950 5948 5945 5942 5938 5934 5930 5926
5944 5946 5948 5951 5950 5951 5951 5952 5952 5952 5953 5954 5954 5956 5958 5959 5960 5961 5961 5962 5962 5963 5963 5963 5963 5964 5963 5963 5962 5961 5960 5959 5958 5956 5954 5952 5949 5946 5942 5939 5936 5931 5926
5944 5946 5948 5950 5951 5951 5952 5952 5952 5953 5954 5955 5957 5958 5959 5959 5961 5962 5963 5964 5964 5965 5965 5966 5966 5965 5965 5965 5964 5963 5962 5960 5959 5957 5956 5955 5950 5945 5942 5939 5936 5932 5927
5943 5945 5948 5950 5951 5951 5952 5953 5953 5954 5955 5956 5958 5959 5960 5961 5963 5964 5964 5965 5965 5966 5966 5966 5966 5967 5966 5966 5965 5964 5963 5962 5960 5959 5957 5955 5951 5948 5944 5941 5938 5933 5929
5941 5945 5947 5949 5950 5950 5951 5952 5954 5955 5955 5956 5957 5959 5960 5962 5964 5964 5965 5966 5967 5967 5967 5967 5968 5968 5968 5968 5966 5965 5964 5963 5962 5960 5959 5955 5951 5948 5946 5942 5938 5934 5929
5940 5942 5945 5946 5949 5950 5952 5953 5954 5955 5955 5956 5957 5958 5960 5961 5963 5964 5965 5966 5967 5968 5967 5968 5968 5968 5968 5967 5967 5966 5965 5965 5963 5962 5959 5955 5952 5950 5947 5943 5938 5934 5929
5938 5940 5943 5944 5947 5949 5950 5952 5953 5954 5956 5956 5957 5957 5958 5960 5962 5964 5965 5966 5968 5968 5968 5968 5968 5968 5968 5968 5967 5967 5966 5964 5963 5961 5958 5954 5952 5950 5946 5942 5937 5933 5929
5936 5938 5941 5943 5946 5947 5949 5950 5952 5953 5955 5955 5956 5957 5958 5959 5960 5962 5964 5966 5967 5968 5968 5968 5968 5968 5968 5968 5967 5967 5966 5964 5962 5960 5956 5954 5952 5949 5945 5941 5937 5933 5929
5934 5936 5938 5941 5943 5944 5946 5947 5950 5951 5953 5954 5955 5955 5956 5957 5958 5960 5961 5962 5964 5966 5967 5967 5966 5966 5966 5966 5966 5965 5964 5962 5960 5959 5955 5954 5951 5948 5945 5941 5938 5934 5927
5928 5932 5935 5937 5939 5941 5943 5944 5946 5948 5950 5952 5953 5953 5954 5954 5956 5957 5958 5960 5961 5962 5963 5964 5964 5965 5965 5965 5965 5964 5962 5961 5959 5958 5955 5953 5950 5947 5944 5942 5937 5932 5927
5923 5926 5929 5932 5934 5937 5939 5941 5942 5944 5946 5948 5949 5950 5951 5951 5952 5953 5955 5956 5957 5959 5960 5960 5961 5962 5962 5963 5962 5962 5961 5959 5958 5956 5954 5952 5947 5945 5943 5938 5934 5930 5926
5917 5920 5923 5927 5930 5933 5935 5936 5938 5940 5941 5943 5945 5946 5947 5948 5949 5949 5950 5952 5953 5955 5956 5957 5958 5959 5959 5959 5959 5959 5959 5957 5955 5954 5953 5949 5946 5943 5940 5936 5933 5930 5926
5910 5915 5918 5921 5925 5928 5930 5932 5933 5935 5937 5938 5940 5942 5943 5943 5943 5945 5946 5947 5949 5950 5951 5953 5954 5954 5955 5954 5955 5955 5955 5955 5953 5951 5949 5946 5943 5940 5937 5934 5931 5929 5925
5903 5907 5912 5915 5918 5922 5924 5926 5928 5931 5933 5934 5936 5937 5938 5939 5939 5940 5941 5943 5943 5944 5945 5947 5949 5949 5951 5950 5951 5951 5951 5951 5949 5947 5946 5943 5939 5937 5935 5932 5929 5926 5923
5897 5901 5904 5908 5912 5915 5917 5919 5921 5925 5928 5930 5931 5933 5934 5934 5935 5935 5936 5937 5938 5939 5939 5941 5943 5943 5945 5944 5946 5947 5946 5947 5945 5942 5942 5939 5935 5933 5929 5927 5925 5922 5919
5888 5890 5894 5899 5903 5907 5909 5912 5915 5918 5922 5925 5925 5927 5929 5929 5929 5930 5931 5932 5934 5933 5932 5934 5937 5938 5939 5940 5940 5941 5941 5941 5940 5939 5935 5935 5932 5929 5926 5922 5919 5916 5913